Flag for Germany Weather past 2 weeks in Rüsselsheim, Hesse, Germany

Now
63 °F

Sunny.


Feels Like: 63 °F
Forecast: 65 / 77 °F
Wind: 3 mph from East

Location: Wiesbaden Airport

Current Time: Jul 28, 2014 at 7:38:42 AM

Latest Report: Jul 28, 2014 at 6:58 AM


Visibility: N/A

Pressure: 29.90 "Hg

Humidity: 90%

Dew point: 60 °F

Location of RüsselsheimLocation

Historic Weather in Rüsselsheim — Graph

°F

Rüsselsheim temperature yesterday

Maximum temperature yesterday: 84 °F (at 3:58 PM)
Minimum temperature yesterday: 63 °F (at 4:58 AM)
Average temperature yesterday: 74 °F

Past Weeks' High & Low Weather Summary

 TemperatureHumidityPressure
High92 °F (Jul 19, 4:58 PM)100% (Jul 14, 5:59 AM)30.19 "Hg (Jul 14, 5:59 AM)
Low59 °F (Jul 14, 5:59 AM)25% (Jul 18, 6:58 PM)29.77 "Hg (Jul 20, 3:58 AM)
Average73 °F65%29.97 "Hg
* Reported Jul 14 5:59 AM — Jul 28 5:58 AM, Rüsselsheim, Weather by CustomWeather, © 2014

Note: Actual official high and low records may vary slightly from our data, if they occured in-between our weather recording intervals... More about our weather records

Advertising

Rüsselsheim weather history for previous 24 hours

 ConditionsComfort  
Time TempWeatherWind HumidityBarometerVisibility
5:58 AM
Jul 28
63 °FClear.No wind88%29.90 "HgN/A
4:58 AM64 °FPassing clouds.7 mph88%29.90 "HgN/A
3:58 AM64 °FPassing clouds.2 mph87%29.92 "HgN/A
2:58 AM66 °FPassing clouds.2 mph83%29.93 "HgN/A
1:58 AM70 °FOvercast.1 mph73%29.93 "HgN/A
12:58 AM70 °FPassing clouds.5 mph73%29.96 "HgN/A
11:58 PM
Jul 27
72 °FPassing clouds.8 mph69%29.95 "HgN/A
10:58 PM72 °FPassing clouds.6 mph69%29.96 "HgN/A
9:58 PM73 °FOvercast.6 mph65%29.96 "HgN/A
8:58 PM75 °FSunny.5 mph61%29.96 "HgN/A
7:58 PM79 °FSunny.7 mph58%29.95 "HgN/A
6:58 PM81 °FSunny.8 mph48%29.94 "HgN/A
5:58 PM84 °FScattered clouds.10 mph43%29.94 "HgN/A
4:58 PM82 °FPassing clouds.5 mph45%29.94 "HgN/A
3:58 PM84 °FScattered clouds.9 mph43%29.96 "HgN/A
2:58 PM83 °FPassing clouds.3 mph49%29.97 "HgN/A
1:58 PM82 °FPartly sunny.9 mph48%29.98 "HgN/A
12:58 PM81 °FPassing clouds.6 mph48%29.98 "HgN/A
11:58 AM79 °FPassing clouds.1 mph54%29.99 "HgN/A
10:58 AM77 °FSunny.2 mph59%29.99 "HgN/A
9:58 AM74 °FSunny.1 mph63%29.99 "HgN/A
8:58 AM70 °FSunny.2 mph73%29.99 "HgN/A
7:58 AM66 °FSunny.5 mph83%29.98 "HgN/A
Weather by CustomWeather, © 2014

See weather overviewHow to use our weather pages